Time,TemperatureF,DewpointF,PressureIn,WindDirection,WindDirectionDegrees,WindSpeedMPH,WindSpeedGustMPH,Humidity,HourlyPrecipIn,Conditions,Clouds,dailyrainin,SoftwareType,DateUTC
2013-01-31 00:02:00,49.3,44.0,29.44,North,-999,-999.0,0.0,82,0.01,,---,0.00,VWS V14.01,2013-01-31 05:02:00,
2013-01-31 00:03:00,49.3,44.0,29.44,North,-999,-999.0,0.0,82,0.01,,---,0.00,VWS V14.01,2013-01-31 05:03:00,
2013-01-31 00:09:00,49.3,44.0,29.45,North,-999,-999.0,0.0,82,0.01,,---,0.00,VWS V14.01,2013-01-31 05:09:00,
2013-01-31 00:14:00,49.3,44.4,29.44,North,-999,-999.0,0.0,83,0.01,,---,0.00,VWS V14.01,2013-01-31 05:14:00,
2013-01-31 00:19:00,49.1,44.2,29.45,North,-999,-999.0,0.0,83,0.01,,---,0.00,VWS V14.01,2013-01-31 05:19:00,
2013-01-31 00:20:00,49.1,44.2,29.44,North,-999,-999.0,0.0,83,0.01,,---,0.00,VWS V14.01,2013-01-31 05:20:00,
2013-01-31 00:25:00,49.0,44.1,29.44,North,-999,-999.0,0.0,83,0.01,,---,0.00,VWS V14.01,2013-01-31 05:25:00,
2013-01-31 00:30:00,49.0,43.8,29.44,North,-999,-999.0,0.0,82,0.01,,---,0.00,VWS V14.01,2013-01-31 05:30:00,
2013-01-31 00:35:00,49.0,43.8,29.44,North,-999,-999.0,0.0,82,0.01,,---,0.00,VWS V14.01,2013-01-31 05:35:00,
2013-01-31 00:40:00,49.0,43.8,29.45,North,-999,-999.0,0.0,82,0.01,,---,0.00,VWS V14.01,2013-01-31 05:40:00,
2013-01-31 00:45:00,49.0,43.8,29.44,North,-999,-999.0,0.0,82,0.01,,---,0.00,VWS V14.01,2013-01-31 05:45:00,
2013-01-31 00:50:00,49.0,43.4,29.45,North,-999,-999.0,0.0,81,0.00,,---,0.00,VWS V14.01,2013-01-31 05:50:00,
2013-01-31 00:55:00,48.8,43.2,29.45,North,-999,-999.0,0.0,81,0.00,,---,0.00,VWS V14.01,2013-01-31 05:55:00,
2013-01-31 01:00:00,48.8,43.2,29.45,North,-999,-999.0,0.0,81,0.00,,---,0.00,VWS V14.01,2013-01-31 06:00:00,
2013-01-31 01:06:00,48.6,42.7,29.46,North,-999,-999.0,0.0,80,0.00,,---,0.00,VWS V14.01,2013-01-31 06:06:00,
2013-01-31 01:11:00,48.4,42.5,29.45,North,-999,-999.0,0.0,80,0.00,,---,0.00,VWS V14.01,2013-01-31 06:11:00,
2013-01-31 01:16:00,48.4,42.5,29.45,North,-999,-999.0,0.0,80,0.00,,---,0.00,VWS V14.01,2013-01-31 06:16:00,
2013-01-31 01:21:00,48.2,42.0,29.46,North,-999,-999.0,0.0,79,0.00,,---,0.00,VWS V14.01,2013-01-31 06:21:00,
2013-01-31 01:26:00,48.1,41.9,29.46,North,-999,-999.0,0.0,79,0.00,,---,0.00,VWS V14.01,2013-01-31 06:26:00,
2013-01-31 01:31:00,47.9,41.7,29.47,North,-999,-999.0,0.0,79,0.00,,---,0.00,VWS V14.01,2013-01-31 06:31:00,
2013-01-31 01:36:00,47.9,41.7,29.48,North,-999,-999.0,0.0,79,0.00,,---,0.00,VWS V14.01,2013-01-31 06:36:00,
2013-01-31 01:41:00,47.7,41.5,29.48,North,-999,-999.0,0.0,79,0.00,,---,0.00,VWS V14.01,2013-01-31 06:41:00,
2013-01-31 01:46:00,47.5,41.3,29.48,North,-999,-999.0,0.0,79,0.00,,---,0.00,VWS V14.01,2013-01-31 06:46:00,
2013-01-31 01:51:00,47.2,40.4,29.49,North,-999,-999.0,0.0,77,0.00,,---,0.00,VWS V14.01,2013-01-31 06:51:00,
2013-01-31 01:56:00,47.2,39.3,29.50,North,-999,-999.0,0.0,74,0.00,,---,0.00,VWS V14.01,2013-01-31 06:56:00,
2013-01-31 02:01:00,47.0,39.2,29.50,North,-999,-999.0,0.0,74,0.00,,---,0.00,VWS V14.01,2013-01-31 07:01:00,
2013-01-31 02:07:00,46.8,39.3,29.50,North,-999,-999.0,0.0,75,0.00,,---,0.00,VWS V14.01,2013-01-31 07:07:00,
2013-01-31 02:12:00,46.6,39.1,29.51,North,-999,-999.0,0.0,75,0.00,,---,0.00,VWS V14.01,2013-01-31 07:12:00,
2013-01-31 02:17:00,46.4,38.9,29.51,North,-999,-999.0,0.0,75,0.00,,---,0.00,VWS V14.01,2013-01-31 07:17:00,
2013-01-31 02:22:00,46.1,38.6,29.51,North,-999,-999.0,0.0,75,0.00,,---,0.00,VWS V14.01,2013-01-31 07:22:00,
2013-01-31 02:27:00,45.7,38.6,29.51,North,-999,-999.0,0.0,76,0.00,,---,0.00,VWS V14.01,2013-01-31 07:27:00,
2013-01-31 02:32:00,45.5,38.7,29.52,North,-999,-999.0,0.0,77,0.00,,---,0.00,VWS V14.01,2013-01-31 07:32:00,
2013-01-31 02:37:00,45.0,38.2,29.52,North,-999,-999.0,0.0,77,0.00,,---,0.00,VWS V14.01,2013-01-31 07:37:00,
2013-01-31 02:42:00,45.0,38.2,29.53,North,-999,-999.0,0.0,77,0.00,,---,0.00,VWS V14.01,2013-01-31 07:42:00,
2013-01-31 02:47:00,44.6,37.5,29.53,North,-999,-999.0,0.0,76,0.00,,---,0.00,VWS V14.01,2013-01-31 07:47:00,
2013-01-31 02:52:00,44.3,37.2,29.53,North,-999,-999.0,0.0,76,0.00,,---,0.00,VWS V14.01,2013-01-31 07:52:00,
2013-01-31 02:57:00,44.1,37.4,29.54,North,-999,-999.0,0.0,77,0.00,,---,0.00,VWS V14.01,2013-01-31 07:57:00,
2013-01-31 03:02:00,43.7,37.0,29.53,North,-999,-999.0,0.0,77,0.00,,---,0.00,VWS V14.01,2013-01-31 08:02:00,
2013-01-31 03:08:00,43.6,36.9,29.54,North,-999,-999.0,0.0,77,0.00,,---,0.00,VWS V14.01,2013-01-31 08:08:00,
2013-01-31 03:13:00,43.6,36.9,29.54,North,-999,-999.0,0.0,77,0.00,,---,0.00,VWS V14.01,2013-01-31 08:13:00,
2013-01-31 03:18:00,43.4,36.3,29.55,North,-999,-999.0,0.0,76,0.00,,---,0.00,VWS V14.01,2013-01-31 08:18:00,
2013-01-31 03:23:00,43.2,36.2,29.55,North,-999,-999.0,0.0,76,0.00,,---,0.00,VWS V14.01,2013-01-31 08:23:00,
2013-01-31 03:28:00,42.8,35.8,29.55,North,-999,-999.0,0.0,76,0.00,,---,0.00,VWS V14.01,2013-01-31 08:28:00,
2013-01-31 03:33:00,42.8,36.1,29.55,North,-999,-999.0,0.0,77,0.00,,---,0.00,VWS V14.01,2013-01-31 08:33:00,
2013-01-31 03:38:00,42.7,35.7,29.56,North,-999,-999.0,0.0,76,0.00,,---,0.00,VWS V14.01,2013-01-31 08:38:00,
2013-01-31 03:43:00,42.5,34.8,29.56,North,-999,-999.0,0.0,74,0.00,,---,0.00,VWS V14.01,2013-01-31 08:43:00,
2013-01-31 03:48:00,42.5,34.8,29.56,North,-999,-999.0,0.0,74,0.00,,---,0.00,VWS V14.01,2013-01-31 08:48:00,
2013-01-31 03:53:00,42.1,34.1,29.56,North,-999,-999.0,0.0,73,0.00,,---,0.00,VWS V14.01,2013-01-31 08:53:00,
2013-01-31 03:58:00,42.1,34.4,29.57,North,-999,-999.0,0.0,74,0.00,,---,0.00,VWS V14.01,2013-01-31 08:58:00,
2013-01-31 04:04:00,41.8,33.5,29.58,North,-999,-999.0,0.0,72,0.00,,---,0.00,VWS V14.01,2013-01-31 09:04:00,
2013-01-31 04:09:00,41.6,33.3,29.58,North,-999,-999.0,0.0,72,0.00,,---,0.00,VWS V14.01,2013-01-31 09:09:00,
2013-01-31 04:14:00,41.4,32.7,29.59,North,-999,-999.0,0.0,71,0.00,,---,0.00,VWS V14.01,2013-01-31 09:14:00,
2013-01-31 04:19:00,41.2,32.2,29.59,North,-999,-999.0,0.0,70,0.00,,---,0.00,VWS V14.01,2013-01-31 09:19:00,
2013-01-31 04:24:00,41.0,31.6,29.60,North,-999,-999.0,0.0,69,0.00,,---,0.00,VWS V14.01,2013-01-31 09:24:00,
2013-01-31 04:29:00,40.9,31.5,29.60,North,-999,-999.0,0.0,69,0.00,,---,0.00,VWS V14.01,2013-01-31 09:29:00,
2013-01-31 04:34:00,40.7,30.6,29.60,North,-999,-999.0,0.0,67,0.00,,---,0.00,VWS V14.01,2013-01-31 09:34:00,
2013-01-31 04:39:00,40.7,30.6,29.60,North,-999,-999.0,0.0,67,0.00,,---,0.00,VWS V14.01,2013-01-31 09:39:00,
2013-01-31 04:44:00,40.5,30.4,29.60,North,-999,-999.0,0.0,67,0.00,,---,0.00,VWS V14.01,2013-01-31 09:44:00,
2013-01-31 04:49:00,40.3,29.9,29.61,North,-999,-999.0,0.0,66,0.00,,---,0.00,VWS V14.01,2013-01-31 09:49:00,
2013-01-31 04:54:00,40.1,29.7,29.61,North,-999,-999.0,0.0,66,0.00,,---,0.00,VWS V14.01,2013-01-31 09:54:00,
2013-01-31 04:59:00,40.1,29.7,29.61,North,-999,-999.0,0.0,66,0.00,,---,0.00,VWS V14.01,2013-01-31 09:59:00,
2013-01-31 05:04:00,40.0,29.2,29.61,North,-999,-999.0,0.0,65,0.00,,---,0.00,VWS V14.01,2013-01-31 10:04:00,
2013-01-31 05:10:00,39.8,28.2,29.62,North,-999,-999.0,0.0,63,0.00,,---,0.00,VWS V14.01,2013-01-31 10:10:00,
2013-01-31 05:15:00,39.8,28.2,29.62,North,-999,-999.0,0.0,63,0.00,,---,0.00,VWS V14.01,2013-01-31 10:15:00,
2013-01-31 05:20:00,39.6,28.1,29.62,North,-999,-999.0,0.0,63,0.00,,---,0.00,VWS V14.01,2013-01-31 10:20:00,
2013-01-31 05:25:00,39.2,27.7,29.63,North,-999,-999.0,0.0,63,0.00,,---,0.00,VWS V14.01,2013-01-31 10:25:00,
2013-01-31 05:30:00,39.2,27.7,29.63,North,-999,-999.0,0.0,63,0.00,,---,0.00,VWS V14.01,2013-01-31 10:30:00,
2013-01-31 05:35:00,39.1,27.6,29.64,North,-999,-999.0,0.0,63,0.00,,---,0.00,VWS V14.01,2013-01-31 10:35:00,
2013-01-31 05:40:00,39.1,27.6,29.64,North,-999,-999.0,0.0,63,0.00,,---,0.00,VWS V14.01,2013-01-31 10:40:00,
2013-01-31 05:45:00,38.9,27.4,29.64,North,-999,-999.0,0.0,63,0.00,,---,0.00,VWS V14.01,2013-01-31 10:45:00,
2013-01-31 05:50:00,38.7,27.2,29.64,North,-999,-999.0,0.0,63,0.00,,---,0.00,VWS V14.01,2013-01-31 10:50:00,
2013-01-31 05:56:00,38.5,26.6,29.65,North,-999,-999.0,0.0,62,0.00,,---,0.00,VWS V14.01,2013-01-31 10:56:00,
2013-01-31 06:01:00,38.5,27.0,29.65,North,-999,-999.0,0.0,63,0.00,,---,0.00,VWS V14.01,2013-01-31 11:01:00,
2013-01-31 06:07:00,38.5,26.6,29.65,North,-999,-999.0,0.0,62,0.00,,---,0.00,VWS V14.01,2013-01-31 11:07:00,
2013-01-31 06:12:00,38.3,26.4,29.66,North,-999,-999.0,0.0,62,0.00,,---,0.00,VWS V14.01,2013-01-31 11:12:00,
2013-01-31 06:17:00,38.0,26.1,29.66,North,-999,-999.0,0.0,62,0.00,,---,0.00,VWS V14.01,2013-01-31 11:17:00,
2013-01-31 06:22:00,38.0,26.1,29.67,North,-999,-999.0,0.0,62,0.00,,---,0.00,VWS V14.01,2013-01-31 11:22:00,
2013-01-31 06:27:00,37.8,26.0,29.67,North,-999,-999.0,0.0,62,0.00,,---,0.00,VWS V14.01,2013-01-31 11:27:00,
2013-01-31 06:32:00,37.8,26.0,29.67,North,-999,-999.0,0.0,62,0.00,,---,0.00,VWS V14.01,2013-01-31 11:32:00,
2013-01-31 06:37:00,37.8,26.0,29.67,North,-999,-999.0,0.0,62,0.00,,---,0.00,VWS V14.01,2013-01-31 11:37:00,
2013-01-31 06:42:00,37.6,25.4,29.67,North,-999,-999.0,0.0,61,0.00,,---,0.00,VWS V14.01,2013-01-31 11:42:00,
2013-01-31 06:47:00,37.6,25.0,29.68,North,-999,-999.0,0.0,60,0.00,,---,0.00,VWS V14.01,2013-01-31 11:47:00,
2013-01-31 06:52:00,37.4,25.2,29.69,North,-999,-999.0,0.0,61,0.00,,---,0.00,VWS V14.01,2013-01-31 11:52:00,
2013-01-31 06:57:00,37.4,25.2,29.69,North,-999,-999.0,0.0,61,0.00,,---,0.00,VWS V14.01,2013-01-31 11:57:00,
2013-01-31 07:03:00,37.4,25.2,29.70,North,-999,-999.0,0.0,61,0.00,,---,0.00,VWS V14.01,2013-01-31 12:03:00,
2013-01-31 07:08:00,37.3,25.1,29.70,North,-999,-999.0,0.0,61,0.00,,---,0.00,VWS V14.01,2013-01-31 12:08:00,
2013-01-31 07:13:00,37.3,25.1,29.70,North,-999,-999.0,0.0,61,0.00,,---,0.00,VWS V14.01,2013-01-31 12:13:00,
2013-01-31 07:18:00,37.1,25.3,29.71,North,-999,-999.0,0.0,62,0.00,,---,0.00,VWS V14.01,2013-01-31 12:18:00,
2013-01-31 07:23:00,37.1,25.3,29.71,North,-999,-999.0,0.0,62,0.00,,---,0.00,VWS V14.01,2013-01-31 12:23:00,
2013-01-31 07:28:00,37.1,25.3,29.71,North,-999,-999.0,0.0,62,0.00,,---,0.00,VWS V14.01,2013-01-31 12:28:00,
2013-01-31 07:33:00,37.1,25.3,29.72,North,-999,-999.0,0.0,62,0.00,,---,0.00,VWS V14.01,2013-01-31 12:33:00,
2013-01-31 07:38:00,36.9,25.1,29.72,North,-999,-999.0,0.0,62,0.00,,---,0.00,VWS V14.01,2013-01-31 12:38:00,
2013-01-31 07:43:00,36.9,25.1,29.72,North,-999,-999.0,0.0,62,0.00,,---,0.00,VWS V14.01,2013-01-31 12:43:00,
2013-01-31 07:48:00,36.9,25.5,29.73,North,-999,-999.0,0.0,63,0.00,,---,0.00,VWS V14.01,2013-01-31 12:48:00,
2013-01-31 07:53:00,36.9,25.5,29.73,North,-999,-999.0,0.0,63,0.00,,---,0.00,VWS V14.01,2013-01-31 12:53:00,
2013-01-31 07:58:00,36.9,25.5,29.73,North,-999,-999.0,0.0,63,0.00,,---,0.00,VWS V14.01,2013-01-31 12:58:00,
2013-01-31 08:04:00,36.9,25.5,29.73,North,-999,-999.0,0.0,63,0.00,,---,0.00,VWS V14.01,2013-01-31 13:04:00,
2013-01-31 08:09:00,36.9,25.5,29.74,North,-999,-999.0,0.0,63,0.00,,---,0.00,VWS V14.01,2013-01-31 13:09:00,
2013-01-31 08:14:00,37.1,25.7,29.74,North,-999,-999.0,0.0,63,0.00,,---,0.00,VWS V14.01,2013-01-31 13:14:00,
2013-01-31 08:19:00,37.8,26.4,29.74,North,-999,-999.0,0.0,63,0.00,,---,0.00,VWS V14.01,2013-01-31 13:19:00,
2013-01-31 08:24:00,38.3,26.8,29.74,North,-999,-999.0,0.0,63,0.00,,---,0.00,VWS V14.01,2013-01-31 13:24:00,
2013-01-31 08:29:00,38.5,27.0,29.75,North,-999,-999.0,0.0,63,0.00,,---,0.00,VWS V14.01,2013-01-31 13:29:00,
2013-01-31 08:34:00,38.7,26.4,29.75,North,-999,-999.0,0.0,61,0.00,,---,0.00,VWS V14.01,2013-01-31 13:34:00,
2013-01-31 08:39:00,38.9,26.6,29.76,North,-999,-999.0,0.0,61,0.00,,---,0.00,VWS V14.01,2013-01-31 13:39:00,
2013-01-31 08:44:00,39.4,26.3,29.76,North,-999,-999.0,0.0,59,0.00,,---,0.00,VWS V14.01,2013-01-31 13:44:00,
2013-01-31 08:49:00,40.0,26.8,29.76,North,-999,-999.0,0.0,59,0.00,,---,0.00,VWS V14.01,2013-01-31 13:49:00,
2013-01-31 08:54:00,40.1,26.1,29.76,North,-999,-999.0,0.0,57,0.00,,---,0.00,VWS V14.01,2013-01-31 13:54:00,
2013-01-31 08:59:00,40.5,26.5,29.76,North,-999,-999.0,0.0,57,0.00,,---,0.00,VWS V14.01,2013-01-31 13:59:00,
2013-01-31 09:05:00,42.7,27.7,29.76,North,-999,-999.0,0.0,55,0.00,,---,0.00,VWS V14.01,2013-01-31 14:05:00,
2013-01-31 09:10:00,44.6,27.6,29.76,North,-999,-999.0,0.0,51,0.00,,---,0.00,VWS V14.01,2013-01-31 14:10:00,
2013-01-31 09:15:00,45.2,27.2,29.76,North,-999,-999.0,0.0,49,0.00,,---,0.00,VWS V14.01,2013-01-31 14:15:00,
2013-01-31 09:20:00,45.7,27.1,29.77,North,-999,-999.0,0.0,48,0.00,,---,0.00,VWS V14.01,2013-01-31 14:20:00,
2013-01-31 09:25:00,47.3,30.6,29.77,North,-999,-999.0,0.0,52,0.00,,---,0.00,VWS V14.01,2013-01-31 14:25:00,
2013-01-31 09:30:00,48.6,29.8,29.77,North,-999,-999.0,0.0,48,0.00,,---,0.00,VWS V14.01,2013-01-31 14:30:00,
2013-01-31 09:35:00,48.6,28.2,29.77,North,-999,-999.0,0.0,45,0.00,,---,0.00,VWS V14.01,2013-01-31 14:35:00,
2013-01-31 09:40:00,49.0,28.0,29.77,North,-999,-999.0,0.0,44,0.00,,---,0.00,VWS V14.01,2013-01-31 14:40:00,
2013-01-31 09:45:00,49.7,28.7,29.78,North,-999,-999.0,0.0,44,0.00,,---,0.00,VWS V14.01,2013-01-31 14:45:00,
2013-01-31 09:50:00,49.3,27.8,29.78,North,-999,-999.0,0.0,43,0.00,,---,0.00,VWS V14.01,2013-01-31 14:50:00,
2013-01-31 09:55:00,49.9,29.4,29.78,North,-999,-999.0,0.0,45,0.00,,---,0.00,VWS V14.01,2013-01-31 14:55:00,
2013-01-31 10:01:00,50.2,28.0,29.78,North,-999,-999.0,0.0,42,0.00,,---,0.00,VWS V14.01,2013-01-31 15:01:00,
2013-01-31 10:06:00,49.7,27.0,29.78,North,-999,-999.0,0.0,41,0.00,,---,0.00,VWS V14.01,2013-01-31 15:06:00,
2013-01-31 10:12:00,50.2,28.0,29.78,North,-999,-999.0,0.0,42,0.00,,---,0.00,VWS V14.01,2013-01-31 15:12:00,
2013-01-31 10:17:00,51.1,28.8,29.79,North,-999,-999.0,0.0,42,0.00,,---,0.00,VWS V14.01,2013-01-31 15:17:00,
2013-01-31 10:22:00,50.9,27.5,29.79,North,-999,-999.0,0.0,40,0.00,,---,0.00,VWS V14.01,2013-01-31 15:22:00,
2013-01-31 10:27:00,51.7,28.8,29.79,North,-999,-999.0,0.0,41,0.00,,---,0.00,VWS V14.01,2013-01-31 15:27:00,
2013-01-31 10:32:00,51.1,27.0,29.79,North,-999,-999.0,0.0,39,0.00,,---,0.00,VWS V14.01,2013-01-31 15:32:00,
2013-01-31 10:37:00,51.7,28.2,29.80,North,-999,-999.0,0.0,40,0.00,,---,0.00,VWS V14.01,2013-01-31 15:37:00,
2013-01-31 10:42:00,54.2,30.4,29.79,North,-999,-999.0,0.0,40,0.00,,---,0.00,VWS V14.01,2013-01-31 15:42:00,
2013-01-31 10:47:00,53.8,28.8,29.79,North,-999,-999.0,0.0,38,0.00,,---,0.00,VWS V14.01,2013-01-31 15:47:00,
2013-01-31 10:52:00,52.2,27.4,29.79,North,-999,-999.0,0.0,38,0.00,,---,0.00,VWS V14.01,2013-01-31 15:52:00,
2013-01-31 10:57:00,52.6,27.7,29.79,North,-999,-999.0,0.0,38,0.00,,---,0.00,VWS V14.01,2013-01-31 15:57:00,
2013-01-31 11:02:00,50.9,26.2,29.79,North,-999,-999.0,0.0,38,0.00,,---,0.00,VWS V14.01,2013-01-31 16:02:00,
2013-01-31 11:08:00,50.6,26.6,29.79,North,-999,-999.0,0.0,39,0.00,,---,0.00,VWS V14.01,2013-01-31 16:08:00,
2013-01-31 11:13:00,50.4,26.4,29.79,North,-999,-999.0,0.0,39,0.00,,---,0.00,VWS V14.01,2013-01-31 16:13:00,
2013-01-31 11:18:00,51.3,26.6,29.79,North,-999,-999.0,0.0,38,0.00,,---,0.00,VWS V14.01,2013-01-31 16:18:00,
2013-01-31 11:23:00,52.4,27.6,29.79,North,-999,-999.0,0.0,38,0.00,,---,0.00,VWS V14.01,2013-01-31 16:23:00,
2013-01-31 11:28:00,52.9,27.4,29.79,North,-999,-999.0,0.0,37,0.00,,---,0.00,VWS V14.01,2013-01-31 16:28:00,
2013-01-31 11:33:00,51.7,25.6,29.79,North,-999,-999.0,0.0,36,0.00,,---,0.00,VWS V14.01,2013-01-31 16:33:00,
2013-01-31 11:38:00,50.9,25.6,29.79,North,-999,-999.0,0.0,37,0.00,,---,0.00,VWS V14.01,2013-01-31 16:38:00,
2013-01-31 11:43:00,52.0,27.2,29.79,North,-999,-999.0,0.0,38,0.00,,---,0.00,VWS V14.01,2013-01-31 16:43:00,
2013-01-31 11:48:00,53.1,27.5,29.79,North,-999,-999.0,0.0,37,0.00,,---,0.00,VWS V14.01,2013-01-31 16:48:00,
2013-01-31 11:53:00,52.6,26.4,29.79,North,-999,-999.0,0.0,36,0.00,,---,0.00,VWS V14.01,2013-01-31 16:53:00,
2013-01-31 11:58:00,52.7,26.5,29.79,North,-999,-999.0,0.0,36,0.00,,---,0.00,VWS V14.01,2013-01-31 16:58:00,
2013-01-31 12:04:00,52.6,26.4,29.79,North,-999,-999.0,0.0,36,0.00,,---,0.00,VWS V14.01,2013-01-31 17:04:00,
2013-01-31 12:09:00,52.7,25.1,29.79,North,-999,-999.0,0.0,34,0.00,,---,0.00,VWS V14.01,2013-01-31 17:09:00,
2013-01-31 12:14:00,51.7,25.0,29.79,North,-999,-999.0,0.0,35,0.00,,---,0.00,VWS V14.01,2013-01-31 17:14:00,
2013-01-31 12:19:00,52.6,25.8,29.79,North,-999,-999.0,0.0,35,0.00,,---,0.00,VWS V14.01,2013-01-31 17:19:00,
2013-01-31 12:24:00,52.9,24.6,29.78,North,-999,-999.0,0.0,33,0.00,,---,0.00,VWS V14.01,2013-01-31 17:24:00,
2013-01-31 12:29:00,53.1,25.5,29.78,North,-999,-999.0,0.0,34,0.00,,---,0.00,VWS V14.01,2013-01-31 17:29:00,
2013-01-31 12:34:00,53.6,25.2,29.78,North,-999,-999.0,0.0,33,0.00,,---,0.00,VWS V14.01,2013-01-31 17:34:00,
2013-01-31 12:39:00,54.0,25.6,29.79,North,-999,-999.0,0.0,33,0.00,,---,0.00,VWS V14.01,2013-01-31 17:39:00,
2013-01-31 12:44:00,55.1,26.5,29.78,North,-999,-999.0,0.0,33,0.00,,---,0.00,VWS V14.01,2013-01-31 17:44:00,
2013-01-31 12:49:00,54.5,25.3,29.78,North,-999,-999.0,0.0,32,0.00,,---,0.00,VWS V14.01,2013-01-31 17:49:00,
2013-01-31 12:54:00,54.7,24.7,29.78,North,-999,-999.0,0.0,31,0.00,,---,0.00,VWS V14.01,2013-01-31 17:54:00,
2013-01-31 12:59:00,54.7,24.7,29.78,North,-999,-999.0,0.0,31,0.00,,---,0.00,VWS V14.01,2013-01-31 17:59:00,
2013-01-31 13:05:00,55.3,26.0,29.78,North,-999,-999.0,0.0,32,0.00,,---,0.00,VWS V14.01,2013-01-31 18:05:00,
2013-01-31 13:10:00,56.0,25.8,29.78,North,-999,-999.0,0.0,31,0.00,,---,0.00,VWS V14.01,2013-01-31 18:10:00,
2013-01-31 13:15:00,55.1,25.0,29.77,North,-999,-999.0,0.0,31,0.00,,---,0.00,VWS V14.01,2013-01-31 18:15:00,
2013-01-31 13:20:00,55.4,23.7,29.78,North,-999,-999.0,0.0,29,0.00,,---,0.00,VWS V14.01,2013-01-31 18:20:00,
2013-01-31 13:25:00,55.4,23.7,29.77,North,-999,-999.0,0.0,29,0.00,,---,0.00,VWS V14.01,2013-01-31 18:25:00,
2013-01-31 13:30:00,55.4,23.7,29.78,North,-999,-999.0,0.0,29,0.00,,---,0.00,VWS V14.01,2013-01-31 18:30:00,
2013-01-31 13:35:00,55.1,23.4,29.78,North,-999,-999.0,0.0,29,0.00,,---,0.00,VWS V14.01,2013-01-31 18:35:00,
2013-01-31 13:40:00,54.9,23.3,29.77,North,-999,-999.0,0.0,29,0.00,,---,0.00,VWS V14.01,2013-01-31 18:40:00,
2013-01-31 13:45:00,55.8,23.2,29.77,North,-999,-999.0,0.0,28,0.00,,---,0.00,VWS V14.01,2013-01-31 18:45:00,
2013-01-31 13:50:00,56.7,24.8,29.77,North,-999,-999.0,0.0,29,0.00,,---,0.00,VWS V14.01,2013-01-31 18:50:00,
2013-01-31 13:55:00,56.5,24.6,29.77,North,-999,-999.0,0.0,29,0.00,,---,0.00,VWS V14.01,2013-01-31 18:55:00,
2013-01-31 14:00:00,56.5,24.6,29.77,North,-999,-999.0,0.0,29,0.00,,---,0.00,VWS V14.01,2013-01-31 19:00:00,
2013-01-31 14:06:00,57.1,24.3,29.78,North,-999,-999.0,0.0,28,0.00,,---,0.00,VWS V14.01,2013-01-31 19:06:00,
2013-01-31 14:11:00,58.5,24.7,29.77,North,-999,-999.0,0.0,27,0.00,,---,0.00,VWS V14.01,2013-01-31 19:11:00,
2013-01-31 14:16:00,57.8,24.9,29.77,North,-999,-999.0,0.0,28,0.00,,---,0.00,VWS V14.01,2013-01-31 19:16:00,
2013-01-31 14:21:00,58.9,25.0,29.77,North,-999,-999.0,0.0,27,0.00,,---,0.00,VWS V14.01,2013-01-31 19:21:00,
2013-01-31 14:26:00,58.0,23.3,29.77,North,-999,-999.0,0.0,26,0.00,,---,0.00,VWS V14.01,2013-01-31 19:26:00,
2013-01-31 14:31:00,57.6,24.8,29.77,North,-999,-999.0,0.0,28,0.00,,---,0.00,VWS V14.01,2013-01-31 19:31:00,
2013-01-31 14:36:00,58.0,23.3,29.78,North,-999,-999.0,0.0,26,0.00,,---,0.00,VWS V14.01,2013-01-31 19:36:00,
2013-01-31 14:41:00,58.0,24.2,29.78,North,-999,-999.0,0.0,27,0.00,,---,0.00,VWS V14.01,2013-01-31 19:41:00,
2013-01-31 14:46:00,57.4,23.7,29.79,North,-999,-999.0,0.0,27,0.00,,---,0.00,VWS V14.01,2013-01-31 19:46:00,
2013-01-31 14:51:00,56.9,23.3,29.79,North,-999,-999.0,0.0,27,0.00,,---,0.00,VWS V14.01,2013-01-31 19:51:00,
2013-01-31 14:56:00,57.6,23.9,29.79,North,-999,-999.0,0.0,27,0.00,,---,0.00,VWS V14.01,2013-01-31 19:56:00,
2013-01-31 15:01:00,57.2,24.4,29.79,North,-999,-999.0,0.0,28,0.00,,---,0.00,VWS V14.01,2013-01-31 20:01:00,
2013-01-31 15:06:00,57.6,24.8,29.79,North,-999,-999.0,0.0,28,0.00,,---,0.00,VWS V14.01,2013-01-31 20:06:00,
2013-01-31 15:12:00,57.2,24.4,29.79,North,-999,-999.0,0.0,28,0.00,,---,0.00,VWS V14.01,2013-01-31 20:12:00,
2013-01-31 15:17:00,57.4,24.6,29.79,North,-999,-999.0,0.0,28,0.00,,---,0.00,VWS V14.01,2013-01-31 20:17:00,
2013-01-31 15:22:00,58.0,25.1,29.79,North,-999,-999.0,0.0,28,0.00,,---,0.00,VWS V14.01,2013-01-31 20:22:00,
2013-01-31 15:27:00,58.3,25.4,29.79,North,-999,-999.0,0.0,28,0.00,,---,0.00,VWS V14.01,2013-01-31 20:27:00,
2013-01-31 15:32:00,58.9,25.9,29.80,North,-999,-999.0,0.0,28,0.00,,---,0.00,VWS V14.01,2013-01-31 20:32:00,
2013-01-31 15:37:00,59.2,24.4,29.79,North,-999,-999.0,0.0,26,0.00,,---,0.00,VWS V14.01,2013-01-31 20:37:00,
2013-01-31 15:42:00,59.4,26.3,29.80,North,-999,-999.0,0.0,28,0.00,,---,0.00,VWS V14.01,2013-01-31 20:42:00,
2013-01-31 15:47:00,60.1,26.0,29.80,North,-999,-999.0,0.0,27,0.00,,---,0.00,VWS V14.01,2013-01-31 20:47:00,
2013-01-31 15:52:00,58.9,23.2,29.80,North,-999,-999.0,0.0,25,0.00,,---,0.00,VWS V14.01,2013-01-31 20:52:00,
2013-01-31 15:57:00,59.9,25.9,29.80,North,-999,-999.0,0.0,27,0.00,,---,0.00,VWS V14.01,2013-01-31 20:57:00,
2013-01-31 16:02:00,61.0,25.0,29.81,North,-999,-999.0,0.0,25,0.00,,---,0.00,VWS V14.01,2013-01-31 21:02:00,
2013-01-31 16:08:00,61.6,25.5,29.81,North,-999,-999.0,0.0,25,0.00,,---,0.00,VWS V14.01,2013-01-31 21:08:00,
2013-01-31 16:13:00,60.7,23.7,29.81,North,-999,-999.0,0.0,24,0.00,,---,0.00,VWS V14.01,2013-01-31 21:13:00,
2013-01-31 16:18:00,60.5,24.5,29.80,North,-999,-999.0,0.0,25,0.00,,---,0.00,VWS V14.01,2013-01-31 21:18:00,
2013-01-31 16:23:00,60.1,22.2,29.80,North,-999,-999.0,0.0,23,0.00,,---,0.00,VWS V14.01,2013-01-31 21:23:00,
2013-01-31 16:28:00,59.9,24.0,29.80,North,-999,-999.0,0.0,25,0.00,,---,0.00,VWS V14.01,2013-01-31 21:28:00,
2013-01-31 16:33:00,60.7,22.7,29.80,North,-999,-999.0,0.0,23,0.00,,---,0.00,VWS V14.01,2013-01-31 21:33:00,
2013-01-31 16:38:00,60.1,22.2,29.80,North,-999,-999.0,0.0,23,0.00,,---,0.00,VWS V14.01,2013-01-31 21:38:00,
2013-01-31 16:43:00,59.9,23.0,29.80,North,-999,-999.0,0.0,24,0.00,,---,0.00,VWS V14.01,2013-01-31 21:43:00,
2013-01-31 16:48:00,59.6,22.8,29.81,North,-999,-999.0,0.0,24,0.00,,---,0.00,VWS V14.01,2013-01-31 21:48:00,
2013-01-31 16:53:00,58.9,25.0,29.81,North,-999,-999.0,0.0,27,0.00,,---,0.00,VWS V14.01,2013-01-31 21:53:00,
2013-01-31 16:58:00,58.5,24.7,29.81,North,-999,-999.0,0.0,27,0.00,,---,0.00,VWS V14.01,2013-01-31 21:58:00,
2013-01-31 17:04:00,58.7,24.8,29.81,North,-999,-999.0,0.0,27,0.00,,---,0.00,VWS V14.01,2013-01-31 22:04:00,
2013-01-31 17:09:00,58.1,24.3,29.81,North,-999,-999.0,0.0,27,0.00,,---,0.00,VWS V14.01,2013-01-31 22:09:00,
2013-01-31 17:14:00,56.7,24.0,29.81,North,-999,-999.0,0.0,28,0.00,,---,0.00,VWS V14.01,2013-01-31 22:14:00,
2013-01-31 17:19:00,55.8,24.0,29.81,North,-999,-999.0,0.0,29,0.00,,---,0.00,VWS V14.01,2013-01-31 22:19:00,
2013-01-31 17:24:00,55.6,23.9,29.81,North,-999,-999.0,0.0,29,0.00,,---,0.00,VWS V14.01,2013-01-31 22:24:00,
2013-01-31 17:29:00,55.1,23.4,29.82,North,-999,-999.0,0.0,29,0.00,,---,0.00,VWS V14.01,2013-01-31 22:29:00,
2013-01-31 17:34:00,52.9,22.3,29.82,North,-999,-999.0,0.0,30,0.00,,---,0.00,VWS V14.01,2013-01-31 22:34:00,
2013-01-31 17:39:00,51.1,22.3,29.82,North,-999,-999.0,0.0,32,0.00,,---,0.00,VWS V14.01,2013-01-31 22:39:00,
2013-01-31 17:44:00,50.0,22.0,29.82,North,-999,-999.0,0.0,33,0.00,,---,0.00,VWS V14.01,2013-01-31 22:44:00,
2013-01-31 17:49:00,49.3,21.4,29.81,North,-999,-999.0,0.0,33,0.00,,---,0.00,VWS V14.01,2013-01-31 22:49:00,
2013-01-31 17:54:00,48.8,21.7,29.82,North,-999,-999.0,0.0,34,0.00,,---,0.00,VWS V14.01,2013-01-31 22:54:00,
2013-01-31 17:59:00,48.4,22.0,29.82,North,-999,-999.0,0.0,35,0.00,,---,0.00,VWS V14.01,2013-01-31 22:59:00,
2013-01-31 18:05:00,47.9,22.2,29.82,North,-999,-999.0,0.0,36,0.00,,---,0.00,VWS V14.01,2013-01-31 23:05:00,
2013-01-31 18:10:00,47.5,21.9,29.82,North,-999,-999.0,0.0,36,0.00,,---,0.00,VWS V14.01,2013-01-31 23:10:00,
2013-01-31 18:15:00,47.2,22.3,29.82,North,-999,-999.0,0.0,37,0.00,,---,0.00,VWS V14.01,2013-01-31 23:15:00,
2013-01-31 18:20:00,46.8,21.3,29.82,North,-999,-999.0,0.0,36,0.00,,---,0.00,VWS V14.01,2013-01-31 23:20:00,
2013-01-31 18:25:00,46.4,20.9,29.83,North,-999,-999.0,0.0,36,0.00,,---,0.00,VWS V14.01,2013-01-31 23:25:00,
2013-01-31 18:30:00,46.3,21.5,29.83,North,-999,-999.0,0.0,37,0.00,,---,0.00,VWS V14.01,2013-01-31 23:30:00,
2013-01-31 18:35:00,45.9,21.1,29.83,North,-999,-999.0,0.0,37,0.00,,---,0.00,VWS V14.01,2013-01-31 23:35:00,
2013-01-31 18:40:00,45.7,21.6,29.84,North,-999,-999.0,0.0,38,0.00,,---,0.00,VWS V14.01,2013-01-31 23:40:00,
2013-01-31 18:45:00,45.5,21.4,29.84,North,-999,-999.0,0.0,38,0.00,,---,0.00,VWS V14.01,2013-01-31 23:45:00,
2013-01-31 18:50:00,45.4,21.3,29.84,North,-999,-999.0,0.0,38,0.00,,---,0.00,VWS V14.01,2013-01-31 23:50:00,
2013-01-31 18:55:00,45.0,20.9,29.84,North,-999,-999.0,0.0,38,0.00,,---,0.00,VWS V14.01,2013-01-31 23:55:00,
2013-01-31 19:00:00,45.0,21.5,29.84,North,-999,-999.0,0.0,39,0.00,,---,0.00,VWS V14.01,2013-02-01 00:00:00,
2013-01-31 19:06:00,44.6,21.2,29.84,North,-999,-999.0,0.0,39,0.00,,---,0.00,VWS V14.01,2013-02-01 00:06:00,
2013-01-31 19:11:00,44.5,21.1,29.85,North,-999,-999.0,0.0,39,0.00,,---,0.00,VWS V14.01,2013-02-01 00:11:00,
2013-01-31 19:16:00,44.3,20.9,29.85,North,-999,-999.0,0.0,39,0.00,,---,0.00,VWS V14.01,2013-02-01 00:16:00,
2013-01-31 19:21:00,44.1,21.3,29.85,North,-999,-999.0,0.0,40,0.00,,---,0.00,VWS V14.01,2013-02-01 00:21:00,
2013-01-31 19:26:00,43.9,21.2,29.85,North,-999,-999.0,0.0,40,0.00,,---,0.00,VWS V14.01,2013-02-01 00:26:00,
2013-01-31 19:31:00,43.6,20.9,29.86,North,-999,-999.0,0.0,40,0.00,,---,0.00,VWS V14.01,2013-02-01 00:31:00,
2013-01-31 19:36:00,43.6,20.9,29.86,North,-999,-999.0,0.0,40,0.00,,---,0.00,VWS V14.01,2013-02-01 00:36:00,
2013-01-31 19:41:00,43.2,21.1,29.86,North,-999,-999.0,0.0,41,0.00,,---,0.00,VWS V14.01,2013-02-01 00:41:00,
2013-01-31 19:46:00,43.0,21.5,29.86,North,-999,-999.0,0.0,42,0.00,,---,0.00,VWS V14.01,2013-02-01 00:46:00,
2013-01-31 19:51:00,43.0,21.5,29.86,North,-999,-999.0,0.0,42,0.00,,---,0.00,VWS V14.01,2013-02-01 00:51:00,
2013-01-31 19:56:00,43.0,21.5,29.86,North,-999,-999.0,0.0,42,0.00,,---,0.00,VWS V14.01,2013-02-01 00:56:00,
2013-01-31 20:02:00,43.0,21.5,29.86,North,-999,-999.0,0.0,42,0.00,,---,0.00,VWS V14.01,2013-02-01 01:02:00,
2013-01-31 20:07:00,43.0,21.5,29.86,North,-999,-999.0,0.0,42,0.00,,---,0.00,VWS V14.01,2013-02-01 01:07:00,
2013-01-31 20:12:00,42.8,21.9,29.86,North,-999,-999.0,0.0,43,0.00,,---,0.00,VWS V14.01,2013-02-01 01:12:00,
2013-01-31 20:17:00,42.8,21.9,29.86,North,-999,-999.0,0.0,43,0.00,,---,0.00,VWS V14.01,2013-02-01 01:17:00,
2013-01-31 20:22:00,42.7,21.8,29.86,North,-999,-999.0,0.0,43,0.00,,---,0.00,VWS V14.01,2013-02-01 01:22:00,
2013-01-31 20:27:00,42.5,21.6,29.87,North,-999,-999.0,0.0,43,0.00,,---,0.00,VWS V14.01,2013-02-01 01:27:00,
2013-01-31 20:32:00,42.1,21.2,29.87,North,-999,-999.0,0.0,43,0.00,,---,0.00,VWS V14.01,2013-02-01 01:32:00,
2013-01-31 20:37:00,42.1,21.8,29.87,North,-999,-999.0,0.0,44,0.00,,---,0.00,VWS V14.01,2013-02-01 01:37:00,
2013-01-31 20:42:00,41.9,21.6,29.86,North,-999,-999.0,0.0,44,0.00,,---,0.00,VWS V14.01,2013-02-01 01:42:00,
2013-01-31 20:47:00,41.8,22.0,29.86,North,-999,-999.0,0.0,45,0.00,,---,0.00,VWS V14.01,2013-02-01 01:47:00,
2013-01-31 20:52:00,41.9,22.1,29.86,North,-999,-999.0,0.0,45,0.00,,---,0.00,VWS V14.01,2013-02-01 01:52:00,
2013-01-31 20:57:00,41.8,22.0,29.86,North,-999,-999.0,0.0,45,0.00,,---,0.00,VWS V14.01,2013-02-01 01:57:00,
2013-01-31 21:03:00,41.9,22.1,29.86,North,-999,-999.0,0.0,45,0.00,,---,0.00,VWS V14.01,2013-02-01 02:03:00,
2013-01-31 21:08:00,41.9,22.6,29.87,North,-999,-999.0,0.0,46,0.00,,---,0.00,VWS V14.01,2013-02-01 02:08:00,
2013-01-31 21:13:00,41.9,22.6,29.87,North,-999,-999.0,0.0,46,0.00,,---,0.00,VWS V14.01,2013-02-01 02:13:00,
2013-01-31 21:18:00,41.9,22.6,29.87,North,-999,-999.0,0.0,46,0.00,,---,0.00,VWS V14.01,2013-02-01 02:18:00,
2013-01-31 21:23:00,41.9,22.6,29.87,North,-999,-999.0,0.0,46,0.00,,---,0.00,VWS V14.01,2013-02-01 02:23:00,
2013-01-31 21:28:00,41.9,22.6,29.87,North,-999,-999.0,0.0,46,0.00,,---,0.00,VWS V14.01,2013-02-01 02:28:00,
2013-01-31 21:33:00,41.8,22.5,29.87,North,-999,-999.0,0.0,46,0.00,,---,0.00,VWS V14.01,2013-02-01 02:33:00,
2013-01-31 21:38:00,41.8,23.1,29.87,North,-999,-999.0,0.0,47,0.00,,---,0.00,VWS V14.01,2013-02-01 02:38:00,
2013-01-31 21:43:00,41.8,23.1,29.88,North,-999,-999.0,0.0,47,0.00,,---,0.00,VWS V14.01,2013-02-01 02:43:00,
2013-01-31 21:48:00,41.9,23.2,29.88,North,-999,-999.0,0.0,47,0.00,,---,0.00,VWS V14.01,2013-02-01 02:48:00,
2013-01-31 21:53:00,41.8,23.1,29.88,North,-999,-999.0,0.0,47,0.00,,---,0.00,VWS V14.01,2013-02-01 02:53:00,
2013-01-31 21:58:00,41.9,23.2,29.88,North,-999,-999.0,0.0,47,0.00,,---,0.00,VWS V14.01,2013-02-01 02:58:00,
2013-01-31 22:04:00,41.9,23.2,29.88,North,-999,-999.0,0.0,47,0.00,,---,0.00,VWS V14.01,2013-02-01 03:04:00,
2013-01-31 22:09:00,41.9,23.2,29.88,North,-999,-999.0,0.0,47,0.00,,---,0.00,VWS V14.01,2013-02-01 03:09:00,
2013-01-31 22:14:00,41.9,23.2,29.88,North,-999,-999.0,0.0,47,0.00,,---,0.00,VWS V14.01,2013-02-01 03:14:00,
2013-01-31 22:19:00,41.9,23.2,29.88,North,-999,-999.0,0.0,47,0.00,,---,0.00,VWS V14.01,2013-02-01 03:19:00,
2013-01-31 22:24:00,41.8,23.6,29.88,North,-999,-999.0,0.0,48,0.00,,---,0.00,VWS V14.01,2013-02-01 03:24:00,
2013-01-31 22:29:00,41.6,23.4,29.89,North,-999,-999.0,0.0,48,0.00,,---,0.00,VWS V14.01,2013-02-01 03:29:00,
2013-01-31 22:34:00,41.8,23.6,29.88,North,-999,-999.0,0.0,48,0.00,,---,0.00,VWS V14.01,2013-02-01 03:34:00,
2013-01-31 22:39:00,41.9,23.7,29.88,North,-999,-999.0,0.0,48,0.00,,---,0.00,VWS V14.01,2013-02-01 03:39:00,
2013-01-31 22:44:00,42.1,23.8,29.88,North,-999,-999.0,0.0,48,0.00,,---,0.00,VWS V14.01,2013-02-01 03:44:00,
2013-01-31 22:49:00,42.1,24.3,29.88,North,-999,-999.0,0.0,49,0.00,,---,0.00,VWS V14.01,2013-02-01 03:49:00,
2013-01-31 22:54:00,42.3,24.5,29.88,North,-999,-999.0,0.0,49,0.00,,---,0.00,VWS V14.01,2013-02-01 03:54:00,
2013-01-31 22:59:00,42.3,24.5,29.88,North,-999,-999.0,0.0,49,0.00,,---,0.00,VWS V14.01,2013-02-01 03:59:00,
2013-01-31 23:04:00,42.3,24.5,29.87,North,-999,-999.0,0.0,49,0.00,,---,0.00,VWS V14.01,2013-02-01 04:04:00,
2013-01-31 23:10:00,42.5,24.7,29.88,North,-999,-999.0,0.0,49,0.00,,---,0.00,VWS V14.01,2013-02-01 04:10:00,
2013-01-31 23:15:00,42.5,24.7,29.87,North,-999,-999.0,0.0,49,0.00,,---,0.00,VWS V14.01,2013-02-01 04:15:00,
2013-01-31 23:20:00,42.5,24.7,29.87,North,-999,-999.0,0.0,49,0.00,,---,0.00,VWS V14.01,2013-02-01 04:20:00,
2013-01-31 23:25:00,42.3,24.5,29.88,North,-999,-999.0,0.0,49,0.00,,---,0.00,VWS V14.01,2013-02-01 04:25:00,
2013-01-31 23:30:00,42.3,24.5,29.87,North,-999,-999.0,0.0,49,0.00,,---,0.00,VWS V14.01,2013-02-01 04:30:00,
2013-01-31 23:35:00,42.3,24.5,29.88,North,-999,-999.0,0.0,49,0.00,,---,0.00,VWS V14.01,2013-02-01 04:35:00,
2013-01-31 23:40:00,42.1,24.3,29.88,North,-999,-999.0,0.0,49,0.00,,---,0.00,VWS V14.01,2013-02-01 04:40:00,
2013-01-31 23:45:00,42.1,24.3,29.88,North,-999,-999.0,0.0,49,0.00,,---,0.00,VWS V14.01,2013-02-01 04:45:00,
2013-01-31 23:50:00,42.3,24.5,29.88,North,-999,-999.0,0.0,49,0.00,,---,0.00,VWS V14.01,2013-02-01 04:50:00,
2013-01-31 23:55:00,42.1,24.3,29.88,North,-999,-999.0,0.0,49,0.00,,---,0.00,VWS V14.01,2013-02-01 04:55:00,